RH
30 28 27 31 31 28 29 33 37 40 39 46 49 48 48 49 48 47 45 43 42 47 47 44 42 37 34
49 50 44 40 38 41 44 51 55 59 61 57 58 56 54 53 50 49 47 44 41 46 44 42 39 35 32
59 58 54 52 48 54 59 58 63 64 62 63 61 59 58 56 54 51 48 44 40 41 42 40 37 31 26
64 63 64 66 66 71 74 72 72 70 68 67 66 64 61 59 56 53 48 45 41 38 35 32 31 29 29
74 77 82 84 91 91 89 90 84 82 78 75 69 65 64 63 60 56 51 47 44 41 39 36 34 34 40
95 94 92 92 94 94 89 87 82 82 79 76 74 70 69 68 64 60 60 56 50 44 42 42 45 44 44
88 90 95 95 93 92 90 86 82 81 77 76 77 73 72 70 68 66 62 59 51 51 51 50 49 49 47
95 95 95 95 95 93 92 90 85 82 81 76 76 72 72 71 71 70 66 65 63 59 57 55 52 50 48
97 97 97 97 97 95 93 92 87 85 85 80 80 79 77 73 73 74 71 69 66 63 61 58 54 52 52
96 96 98 97 98 97 96 93 90 86 87 88 88 88 82 78 76 77 76 70 68 67 65 63 65 61 56
96 95 95 95 95 96 97 96 93 89 91 95 92 90 86 81 79 78 76 73 71 69 67 66 69 67 63
96 95 95 93 92 91 91 92 94 92 94 96 94 93 91 88 83 80 78 75 73 71 70 67 66 63 62
97 96 97 97 98 97 95 93 92 91 91 93 93 91 88 85 82 82 80 75 75 75 72 64 59 60 58
98 98 97 96 99 98 96 93 95 91 87 84 86 89 87 84 82 81 78 77 75 71 64 61 62 60 59
95 95 96 98 96 95 97 97 95 91 84 80 80 83 84 83 81 78 75 71 64 62 66 67 60 58 58
63 67 70 73 75 75 77 77 80 77 76 77 79 80 79 71 68 66 64 59 55 57 59 61 54 50 45
60 61 59 60 65 66 65 62 62 67 73 72 72 72 74 70 61 58 58 59 55 52 55 55 55 44 40